GW3271 Weather Reports


Display with metric or nautical units.
time (UTC)temp
F
wind
direction
speed
MPH
gust
MPH
rain 1hr
in
rain 24hr
in
rain mn
in
humidity
%
barometer
mb
20260905134543 82 0 0.0 3.0 0.00 0.00 0.00 85 1014.9
20260905133034 81 221 0.0 1.0 0.00 0.00 0.00 87 1014.8
20260905131535 79 0 0.0 2.0 0.00 0.00 0.00 88 1014.7
20260905130034 79 96 0.0 2.0 0.00 0.00 0.00 89 1014.5
20260905124534 79 0 0.0 1.0 0.00 0.00 0.00 89 1014.2
20260905123037 78 0 0.0 1.0 0.00 0.00 0.00 89 1014.2
20260905121533 78 219 0.0 1.0 0.00 0.00 0.00 89 1014.1
20260905120037 78 0 0.0 1.0 0.00 0.00 0.00 90 1013.8
20260905114534 78 0 0.0 0.0 0.00 0.00 0.00 90 1013.7
20260905113033 77 0 0.0 0.0 0.00 0.00 0.00 90 1013.8
20260905111536 78 0 0.0 0.0 0.00 0.00 0.00 89 1013.7
20260905110037 78 0 0.0 0.0 0.00 0.00 0.00 89 1013.6
20260905104534 78 0 0.0 0.0 0.00 0.00 0.00 89 1013.5
20260905103041 78 0 0.0 0.0 0.00 0.00 0.00 89 1013.5
20260905101535 78 0 0.0 0.0 0.00 0.00 0.00 88 1013.6
20260905100039 79 0 0.0 0.0 0.00 0.00 0.00 88 1013.4
20260905094533 79 0 0.0 1.0 0.00 0.00 0.00 87 1013.2
20260905093042 79 0 0.0 3.0 0.00 0.00 0.00 87 1013.2
20260905091531 79 0 0.0 3.0 0.00 0.00 0.00 86 1013.2
20260905090037 79 0 0.0 3.0 0.00 0.00 0.00 86 1013.4
20260905084534 80 239 0.0 4.0 0.00 0.00 0.00 85 1013.4
20260905083032 80 0 0.0 3.0 0.00 0.00 0.00 85 1013.5
20260905081533 80 272 0.0 2.0 0.00 0.00 0.00 84 1013.5
20260905080030 80 239 0.0 4.0 0.00 0.00 0.00 84 1013.7
20260905074532 80 270 1.0 5.0 0.00 0.00 0.00 83 1013.6
20260905073034 80 0 1.0 4.0 0.00 0.00 0.00 83 1013.6
20260905071535 80 160 1.0 3.0 0.00 0.00 0.00 83 1013.9
20260905070037 80 0 0.0 2.0 0.00 0.00 0.00 82 1014.0
20260905064533 81 212 0.0 4.0 0.00 0.00 0.00 81 1014.0
20260905063036 81 0 1.0 3.0 0.00 0.00 0.00 80 1014.1
20260905061536 81 246 0.0 2.0 0.00 0.00 0.00 79 1014.2
20260905060033 81 0 0.0 1.0 0.00 0.00 0.00 78 1014.2
20260905054534 81 0 0.0 2.0 0.00 0.00 0.00 77 1014.2
20260905053036 82 0 0.0 3.0 0.00 0.00 0.00 76 1014.3
20260905051535 82 0 0.0 2.0 0.00 0.00 0.00 75 1014.5
20260905050032 82 0 0.0 6.0 0.00 0.00 0.00 74 1014.4
20260905044540 82 68 2.0 5.0 0.00 0.00 0.00 73 1014.3
20260905043040 83 0 1.0 4.0 0.00 0.00 0.00 73 1014.3
20260905041533 83 37 1.0 5.0 0.00 0.00 0.00 72 1014.2
20260905040034 83 0 1.0 5.0 0.00 0.00 0.00 71 1014.1
20260905034535 84 205 1.0 4.0 0.00 0.00 0.00 71 1014.0
20260905033034 84 58 0.0 5.0 0.00 0.00 0.00 70 1014.0
20260905031539 84 343 1.0 4.0 0.00 0.00 0.00 68 1014.2
20260905030035 85 85 2.0 6.0 0.00 0.00 0.00 67 1014.0
20260905024536 85 58 1.0 5.0 0.00 0.00 0.00 66 1013.8
20260905023035 85 116 1.0 5.0 0.00 0.00 0.00 66 1013.7
20260905021537 85 65 1.0 3.0 0.00 0.00 0.00 67 1013.2
20260905020045 86 60 0.0 4.0 0.00 0.00 0.00 66 1013.3
20260905014534 86 0 0.0 4.0 0.00 0.00 0.00 66 1013.2
20260905013045 86 65 0.0 4.0 0.00 0.00 0.00 66 1013.2
20260905011603 87 226 1.0 5.0 0.00 0.00 0.00 66 1012.9
20260905010034 87 39 2.0 8.0 0.00 0.00 0.00 65 1012.8
20260905004536 87 26 4.0 8.0 0.00 0.00 0.00 64 1012.7
20260905003038 88 71 4.0 8.0 0.00 0.00 0.00 62 1012.3
20260905001543 89 60 3.0 11.0 0.00 0.00 0.00 59 1012.3
20260905000034 89 88 4.0 9.0 0.00 0.00 0.00 60 1012.2
20260904234536 89 39 5.0 10.0 0.00 0.00 0.00 59 1012.1
20260904233032 89 60 4.0 11.0 0.00 0.00 0.00 58 1012.3
20260904231535 90 78 4.0 9.0 0.00 0.00 0.00 58 1012.1
20260904230034 90 72 3.0 8.0 0.00 0.00 0.00 58 1012.2
20260904224536 91 5 3.0 10.0 0.00 0.00 0.00 57 1012.0
20260904223032 93 193 1.0 5.0 0.00 0.00 0.00 49 1012.2
20260904221535 94 79 0.0 5.0 0.00 0.00 0.00 47 1012.2
20260904220032 94 243 1.0 4.0 0.00 0.00 0.00 49 1012.3
20260904214533 95 271 1.0 10.0 0.00 0.00 0.00 46 1012.4
20260904213034 94 287 2.0 6.0 0.00 0.00 0.00 49 1012.8
20260904211532 92 222 1.0 4.0 0.00 0.00 0.00 56 1013.0
20260904210035 92 230 0.0 2.0 0.00 0.00 0.00 60 1013.1
20260904204534 89 0 1.0 6.0 0.00 0.00 0.00 64 1013.4
20260904203036 88 64 0.0 3.0 0.00 0.00 0.00 66 1013.7
20260904201532 88 360 0.0 3.0 0.00 0.00 0.00 65 1013.9
20260904200037 87 0 0.0 5.0 0.00 0.00 0.00 66 1014.1
20260904194544 87 0 2.0 5.0 0.00 0.00 0.00 60 1014.1
20260904193033 86 23 1.0 5.0 0.00 0.00 0.00 69 1014.2
20260904191535 86 54 0.0 4.0 0.00 0.00 0.00 70 1014.3
20260904190034 86 30 0.0 3.0 0.00 0.00 0.00 73 1014.6
20260904184538 85 0 0.0 3.0 0.00 0.00 0.00 74 1014.8
20260904183035 85 246 0.0 3.0 0.00 0.00 0.00 75 1015.0
20260904181547 85 0 0.0 3.0 0.00 0.00 0.00 75 1015.0
20260904180039 85 264 1.0 5.0 0.00 0.00 0.00 75 1015.0
20260904174535 84 91 1.0 3.0 0.00 0.00 0.00 76 1015.1
20260904173036 84 51 0.0 3.0 0.00 0.00 0.00 77 1015.3
20260904171539 84 86 1.0 6.0 0.00 0.00 0.00 78 1015.5
20260904170034 85 0 0.0 1.0 0.00 0.00 0.00 76 1015.5
20260904164531 84 221 0.0 5.0 0.00 0.00 0.00 76 1015.5
20260904163034 84 250 0.0 3.0 0.00 0.00 0.00 76 1015.3
20260904161533 84 235 0.0 4.0 0.00 0.00 0.00 78 1015.3
20260904160034 83 0 0.0 4.0 0.00 0.00 0.00 79 1015.1
20260904154544 83 252 0.0 2.0 0.00 0.00 0.00 80 1015.1
20260904153036 82 0 0.0 3.0 0.00 0.00 0.00 81 1015.1
20260904151536 82 0 0.0 2.0 0.00 0.00 0.00 82 1014.9
20260904150033 81 0 0.0 4.0 0.00 0.00 0.00 83 1015.0
20260904144533 81 0 1.0 4.0 0.00 0.00 0.00 83 1015.1
20260904143038 81 257 0.0 2.0 0.00 0.00 0.00 84 1015.1
20260904141537 81 0 0.0 2.0 0.00 0.00 0.00 85 1015.0
20260904140044 81 267 0.0 1.0 0.00 0.00 0.00 85 1015.0